Time,TemperatureF,DewpointF,PressureIn,WindDirection,WindDirectionDegrees,WindSpeedMPH,WindSpeedGustMPH,Humidity,HourlyPrecipIn,Conditions,Clouds,dailyrainin,SoftwareType,DateUTC
2013-01-02 00:02:00,7.0,2.0,-100.00,ESE,115,2.0,4.0,80,0.00,,,-99.99,,2013-01-02 07:02:00,
2013-01-02 00:12:00,7.0,2.0,-100.00,East,90,6.0,6.0,80,0.00,,,-99.99,,2013-01-02 07:12:00,
2013-01-02 00:22:00,7.0,2.0,-100.00,East,90,4.0,6.0,80,0.00,,,-99.99,,2013-01-02 07:22:00,
2013-01-02 00:32:00,7.0,2.0,-100.00,East,90,4.0,6.0,80,0.00,,,-99.99,,2013-01-02 07:32:00,
2013-01-02 00:42:00,7.0,2.0,-100.00,East,90,4.0,6.0,81,0.00,,,-99.99,,2013-01-02 07:42:00,
2013-01-02 00:52:00,7.0,2.0,-100.00,ESE,105,4.0,6.0,81,0.00,,,-99.99,,2013-01-02 07:52:00,
2013-01-02 01:02:00,6.0,2.0,-100.00,East,85,4.0,6.0,82,0.00,,,-99.99,,2013-01-02 08:02:00,
2013-01-02 01:12:00,6.0,2.0,-100.00,East,100,3.0,5.0,82,0.00,,,-99.99,,2013-01-02 08:12:00,
2013-01-02 01:22:00,5.0,1.0,-100.00,ESE,115,2.0,4.0,82,0.00,,,-99.99,,2013-01-02 08:22:00,
2013-01-02 01:32:00,5.0,1.0,-100.00,East,95,2.0,3.0,83,0.00,,,-99.99,,2013-01-02 08:32:00,
2013-01-02 01:42:00,5.0,1.0,-100.00,ENE,75,2.0,3.0,83,0.00,,,-99.99,,2013-01-02 08:42:00,
2013-01-02 01:52:00,5.0,1.0,-100.00,ESE,115,2.0,4.0,83,0.00,,,-99.99,,2013-01-02 08:52:00,
2013-01-02 02:02:00,5.0,1.0,-100.00,East,95,4.0,5.0,84,0.00,,,-99.99,,2013-01-02 09:02:00,
2013-01-02 02:12:00,5.0,2.0,-100.00,SE,130,2.0,5.0,84,0.00,,,-99.99,,2013-01-02 09:12:00,
2013-01-02 02:22:00,6.0,2.0,-100.00,ESE,105,2.0,4.0,84,0.00,,,-99.99,,2013-01-02 09:22:00,
2013-01-02 02:32:00,6.0,3.0,-100.00,East,85,2.0,4.0,85,0.00,,,-99.99,,2013-01-02 09:32:00,
2013-01-02 02:43:00,6.0,3.0,-100.00,ENE,70,4.0,4.0,85,0.00,,,-99.99,,2013-01-02 09:43:00,
2013-01-02 02:52:00,6.0,3.0,-100.00,SE,125,2.0,4.0,86,0.00,,,-99.99,,2013-01-02 09:52:00,
2013-01-02 03:02:00,6.0,3.0,-100.00,SE,140,2.0,4.0,86,0.00,,,-99.99,,2013-01-02 10:02:00,
2013-01-02 03:12:00,6.0,3.0,-100.00,ESE,115,2.0,3.0,86,0.00,,,-99.99,,2013-01-02 10:12:00,
2013-01-02 03:22:00,6.0,3.0,-100.00,East,100,4.0,4.0,86,0.00,,,-99.99,,2013-01-02 10:22:00,
2013-01-02 03:32:00,6.0,3.0,-100.00,East,90,4.0,4.0,86,0.00,,,-99.99,,2013-01-02 10:32:00,
2013-01-02 03:42:00,6.0,3.0,-100.00,ESE,115,2.0,4.0,87,0.00,,,-99.99,,2013-01-02 10:42:00,
2013-01-02 03:52:00,5.0,2.0,-100.00,SE,130,2.0,2.0,87,0.00,,,-99.99,,2013-01-02 10:52:00,
2013-01-02 04:02:00,5.0,2.0,-100.00,SE,125,1.0,2.0,87,0.00,,,-99.99,,2013-01-02 11:02:00,
2013-01-02 04:12:00,4.0,1.0,-100.00,ESE,110,1.0,2.0,88,0.00,,,-99.99,,2013-01-02 11:12:00,
2013-01-02 04:22:00,4.0,2.0,-100.00,ESE,120,1.0,2.0,88,0.00,,,-99.99,,2013-01-02 11:22:00,
2013-01-02 04:32:00,5.0,2.0,-100.00,ESE,115,2.0,4.0,88,0.00,,,-99.99,,2013-01-02 11:32:00,
2013-01-02 04:42:00,5.0,3.0,-100.00,ESE,120,1.0,2.0,88,0.00,,,-99.99,,2013-01-02 11:42:00,
2013-01-02 04:52:00,5.0,2.0,-100.00,ESE,120,1.0,2.0,88,0.00,,,-99.99,,2013-01-02 11:52:00,
2013-01-02 05:02:00,5.0,2.0,-100.00,ESE,120,1.0,2.0,89,0.00,,,-99.99,,2013-01-02 12:02:00,
2013-01-02 05:12:00,5.0,2.0,-100.00,ESE,120,1.0,2.0,89,0.00,,,-99.99,,2013-01-02 12:12:00,
2013-01-02 05:22:00,5.0,2.0,-100.00,ESE,105,2.0,2.0,89,0.00,,,-99.99,,2013-01-02 12:22:00,
2013-01-02 05:33:00,4.0,2.0,-100.00,East,100,2.0,3.0,89,0.00,,,-99.99,,2013-01-02 12:33:00,
2013-01-02 05:42:00,4.0,1.0,-100.00,ESE,110,1.0,4.0,90,0.00,,,-99.99,,2013-01-02 12:42:00,
2013-01-02 05:53:00,4.0,1.0,-100.00,East,80,4.0,4.0,90,0.00,,,-99.99,,2013-01-02 12:53:00,
2013-01-02 06:02:00,4.0,1.0,-100.00,East,95,4.0,5.0,90,0.00,,,-99.99,,2013-01-02 13:02:00,
2013-01-02 06:12:00,4.0,2.0,-100.00,ESE,105,2.0,4.0,90,0.00,,,-99.99,,2013-01-02 13:12:00,
2013-01-02 06:22:00,5.0,3.0,-100.00,East,90,4.0,4.0,90,0.00,,,-99.99,,2013-01-02 13:22:00,
2013-01-02 06:32:00,5.0,3.0,-100.00,East,80,4.0,5.0,90,0.00,,,-99.99,,2013-01-02 13:32:00,
2013-01-02 06:43:00,5.0,3.0,-100.00,ENE,75,4.0,6.0,90,0.00,,,-99.99,,2013-01-02 13:43:00,
2013-01-02 06:52:00,6.0,4.0,-100.00,East,85,4.0,6.0,91,0.00,,,-99.99,,2013-01-02 13:52:00,
2013-01-02 07:02:00,6.0,4.0,-100.00,ENE,75,4.0,6.0,91,0.00,,,-99.99,,2013-01-02 14:02:00,
2013-01-02 07:12:00,5.0,3.0,-100.00,NE,55,5.0,6.0,91,0.00,,,-99.99,,2013-01-02 14:12:00,
2013-01-02 07:22:00,4.0,2.0,-100.00,East,85,2.0,6.0,91,0.00,,,-99.99,,2013-01-02 14:22:00,
2013-01-02 07:33:00,3.0,1.0,-100.00,East,90,4.0,4.0,91,0.00,,,-99.99,,2013-01-02 14:33:00,
2013-01-02 07:43:00,4.0,2.0,-100.00,East,100,4.0,6.0,91,0.00,,,-99.99,,2013-01-02 14:43:00,
2013-01-02 07:53:00,5.0,4.0,-100.00,East,85,5.0,7.0,91,0.00,,,-99.99,,2013-01-02 14:53:00,
2013-01-02 08:03:00,6.0,4.0,-100.00,East,95,6.0,11.0,91,0.00,,,-99.99,,2013-01-02 15:03:00,
2013-01-02 08:12:00,6.0,4.0,-100.00,East,95,6.0,9.0,91,0.00,,,-99.99,,2013-01-02 15:12:00,
2013-01-02 08:22:00,6.0,4.0,-100.00,East,100,6.0,9.0,91,0.00,,,-99.99,,2013-01-02 15:22:00,
2013-01-02 08:33:00,6.0,4.0,-100.00,East,90,5.0,10.0,91,0.00,,,-99.99,,2013-01-02 15:33:00,
2013-01-02 08:43:00,6.0,4.0,-100.00,ENE,75,6.0,9.0,90,0.00,,,-99.99,,2013-01-02 15:43:00,
2013-01-02 08:53:00,6.0,4.0,-100.00,East,90,6.0,9.0,90,0.00,,,-99.99,,2013-01-02 15:53:00,
2013-01-02 09:03:00,6.0,4.0,-100.00,ENE,70,6.0,7.0,90,0.00,,,-99.99,,2013-01-02 16:03:00,
2013-01-02 09:13:00,7.0,4.0,-100.00,East,85,5.0,7.0,89,0.00,,,-99.99,,2013-01-02 16:13:00,
2013-01-02 09:22:00,8.0,5.0,-100.00,ENE,70,3.0,6.0,88,0.00,,,-99.99,,2013-01-02 16:22:00,
2013-01-02 09:33:00,8.0,5.0,-100.00,East,80,6.0,7.0,87,0.00,,,-99.99,,2013-01-02 16:33:00,
2013-01-02 09:43:00,8.0,5.0,-100.00,ENE,75,5.0,6.0,86,0.00,,,-99.99,,2013-01-02 16:43:00,
2013-01-02 09:53:00,9.0,6.0,-100.00,East,90,3.0,6.0,85,0.00,,,-99.99,,2013-01-02 16:53:00,
2013-01-02 10:03:00,10.0,6.0,-100.00,East,85,3.0,5.0,84,0.00,,,-99.99,,2013-01-02 17:03:00,
2013-01-02 10:13:00,10.0,5.0,-100.00,East,100,3.0,4.0,82,0.00,,,-99.99,,2013-01-02 17:13:00,
2013-01-02 10:23:00,10.0,5.0,-100.00,SE,130,4.0,5.0,80,0.00,,,-99.99,,2013-01-02 17:23:00,
2013-01-02 10:33:00,11.0,6.0,-100.00,ENE,65,3.0,4.0,78,0.00,,,-99.99,,2013-01-02 17:33:00,
2013-01-02 10:43:00,14.0,9.0,-100.00,East,80,1.0,3.0,78,0.00,,,-99.99,,2013-01-02 17:43:00,
2013-01-02 10:53:00,16.0,10.0,-100.00,North,355,0.0,1.0,74,0.00,,,-99.99,,2013-01-02 17:53:00,
2013-01-02 11:02:00,16.0,9.0,-100.00,North,0,1.0,2.0,72,0.00,,,-99.99,,2013-01-02 18:02:00,
2013-01-02 11:12:00,17.0,9.0,-100.00,ENE,70,1.0,4.0,70,0.00,,,-99.99,,2013-01-02 18:12:00,
2013-01-02 11:22:00,20.0,11.0,-100.00,ENE,70,0.0,3.0,69,0.00,,,-99.99,,2013-01-02 18:22:00,
2013-01-02 11:33:00,21.0,11.0,-100.00,WNW,295,5.0,7.0,63,0.00,,,-99.99,,2013-01-02 18:33:00,
2013-01-02 11:42:00,21.0,10.0,-100.00,WNW,300,7.0,10.0,61,0.00,,,-99.99,,2013-01-02 18:42:00,
2013-01-02 11:53:00,20.0,9.0,-100.00,WNW,300,7.0,11.0,60,0.00,,,-99.99,,2013-01-02 18:53:00,
2013-01-02 12:03:00,21.0,9.0,-100.00,WNW,295,9.0,11.0,59,0.00,,,-99.99,,2013-01-02 19:03:00,
2013-01-02 12:12:00,21.0,9.0,-100.00,WNW,300,9.0,11.0,59,0.00,,,-99.99,,2013-01-02 19:12:00,
2013-01-02 12:23:00,22.0,9.0,-100.00,WNW,295,10.0,13.0,57,0.00,,,-99.99,,2013-01-02 19:23:00,
2013-01-02 12:33:00,23.0,10.0,-100.00,WNW,290,7.0,15.0,56,0.00,,,-99.99,,2013-01-02 19:33:00,
2013-01-02 12:43:00,22.0,8.0,-100.00,WNW,285,11.0,15.0,54,0.00,,,-99.99,,2013-01-02 19:43:00,
2013-01-02 12:52:00,21.0,7.0,-100.00,WNW,295,11.0,16.0,54,0.00,,,-99.99,,2013-01-02 19:52:00,
2013-01-02 13:03:00,21.0,7.0,-100.00,WNW,290,11.0,15.0,54,0.00,,,-99.99,,2013-01-02 20:03:00,
2013-01-02 13:12:00,21.0,7.0,-100.00,WNW,295,11.0,16.0,53,0.00,,,-99.99,,2013-01-02 20:12:00,
2013-01-02 13:23:00,22.0,8.0,-100.00,West,275,10.0,16.0,53,0.00,,,-99.99,,2013-01-02 20:23:00,
2013-01-02 13:33:00,22.0,7.0,-100.00,WNW,285,10.0,16.0,52,0.00,,,-99.99,,2013-01-02 20:33:00,
2013-01-02 13:42:00,21.0,7.0,-100.00,WNW,300,13.0,16.0,52,0.00,,,-99.99,,2013-01-02 20:42:00,
2013-01-02 13:53:00,21.0,6.0,-100.00,WNW,295,12.0,14.0,52,0.00,,,-99.99,,2013-01-02 20:53:00,
2013-01-02 14:03:00,22.0,6.0,-100.00,NW,305,12.0,16.0,51,0.00,,,-99.99,,2013-01-02 21:03:00,
2013-01-02 14:13:00,22.0,7.0,-100.00,WNW,295,13.0,17.0,50,0.00,,,-99.99,,2013-01-02 21:13:00,
2013-01-02 14:22:00,22.0,6.0,-100.00,WNW,290,12.0,17.0,49,0.00,,,-99.99,,2013-01-02 21:22:00,
2013-01-02 14:33:00,22.0,6.0,-100.00,WNW,295,14.0,16.0,49,0.00,,,-99.99,,2013-01-02 21:33:00,
2013-01-02 14:43:00,22.0,6.0,-100.00,WNW,300,11.0,17.0,48,0.00,,,-99.99,,2013-01-02 21:43:00,
2013-01-02 14:52:00,22.0,6.0,-100.00,WNW,290,9.0,14.0,48,0.00,,,-99.99,,2013-01-02 21:52:00,
2013-01-02 15:03:00,22.0,6.0,-100.00,WNW,285,11.0,13.0,48,0.00,,,-99.99,,2013-01-02 22:03:00,
2013-01-02 15:12:00,22.0,6.0,-100.00,WNW,285,9.0,14.0,48,0.00,,,-99.99,,2013-01-02 22:12:00,
2013-01-02 15:22:00,20.0,5.0,-100.00,WNW,285,12.0,14.0,50,0.00,,,-99.99,,2013-01-02 22:22:00,
2013-01-02 15:32:00,20.0,4.0,-100.00,WNW,285,11.0,14.0,50,0.00,,,-99.99,,2013-01-02 22:32:00,
2013-01-02 15:42:00,19.0,4.0,-100.00,West,275,7.0,12.0,52,0.00,,,-99.99,,2013-01-02 22:42:00,
2013-01-02 15:52:00,18.0,4.0,-100.00,South,175,1.0,9.0,52,0.00,,,-99.99,,2013-01-02 22:52:00,
2013-01-02 16:03:00,18.0,3.0,-100.00,SE,140,1.0,6.0,52,0.00,,,-99.99,,2013-01-02 23:03:00,
2013-01-02 16:12:00,17.0,3.0,-100.00,SSW,205,0.0,2.0,53,0.00,,,-99.99,,2013-01-02 23:12:00,
2013-01-02 16:23:00,16.0,3.0,-100.00,North,350,1.0,3.0,54,0.00,,,-99.99,,2013-01-02 23:23:00,
2013-01-02 16:33:00,15.0,2.0,-100.00,SW,215,2.0,7.0,55,0.00,,,-99.99,,2013-01-02 23:33:00,
2013-01-02 16:42:00,14.0,2.0,-100.00,West,270,2.0,4.0,56,0.00,,,-99.99,,2013-01-02 23:42:00,
2013-01-02 16:52:00,14.0,2.0,-100.00,WNW,300,4.0,9.0,58,0.00,,,-99.99,,2013-01-02 23:52:00,
2013-01-02 17:02:00,13.0,2.0,-100.00,WSW,255,1.0,5.0,59,0.00,,,-99.99,,2013-01-03 00:02:00,
2013-01-02 17:12:00,12.0,1.0,-100.00,WSW,255,1.0,4.0,60,0.00,,,-99.99,,2013-01-03 00:12:00,
2013-01-02 17:22:00,11.0,1.0,-100.00,SSW,205,0.0,1.0,61,0.00,,,-99.99,,2013-01-03 00:22:00,
2013-01-02 17:38:00,11.0,1.0,-100.00,South,175,0.0,1.0,62,0.00,,,-99.99,,2013-01-03 00:38:00,
2013-01-02 17:52:00,11.0,2.0,-100.00,WNW,290,0.0,2.0,64,0.00,,,-99.99,,2013-01-03 00:52:00,
2013-01-02 18:02:00,11.0,2.0,-100.00,WNW,290,0.0,1.0,65,0.00,,,-99.99,,2013-01-03 01:02:00,
2013-01-02 18:12:00,11.0,3.0,-100.00,WNW,290,1.0,1.0,66,0.00,,,-99.99,,2013-01-03 01:12:00,
2013-01-02 18:22:00,11.0,3.0,-100.00,WNW,290,1.0,2.0,67,0.00,,,-99.99,,2013-01-03 01:22:00,
2013-01-02 18:32:00,11.0,3.0,-100.00,SSE,155,0.0,1.0,68,0.00,,,-99.99,,2013-01-03 01:32:00,
2013-01-02 18:42:00,11.0,3.0,-100.00,SSE,155,0.0,0.0,69,0.00,,,-99.99,,2013-01-03 01:42:00,
2013-01-02 18:52:00,11.0,3.0,-100.00,SSE,155,0.0,0.0,70,0.00,,,-99.99,,2013-01-03 01:52:00,
2013-01-02 19:02:00,11.0,4.0,-100.00,West,280,3.0,4.0,71,0.00,,,-99.99,,2013-01-03 02:02:00,
2013-01-02 19:12:00,13.0,6.0,-100.00,NW,305,6.0,9.0,74,0.00,,,-99.99,,2013-01-03 02:12:00,
2013-01-02 19:22:00,13.0,7.0,-100.00,West,265,5.0,7.0,74,0.00,,,-99.99,,2013-01-03 02:22:00,
2013-01-02 19:33:00,13.0,6.0,-100.00,NW,310,4.0,6.0,75,0.00,,,-99.99,,2013-01-03 02:33:00,
2013-01-02 19:42:00,13.0,6.0,-100.00,NW,310,4.0,6.0,75,0.00,,,-99.99,,2013-01-03 02:42:00,
2013-01-02 19:52:00,13.0,6.0,-100.00,NW,310,4.0,6.0,75,0.00,,,-99.99,,2013-01-03 02:52:00,
2013-01-02 20:02:00,12.0,6.0,-100.00,North,10,0.0,3.0,76,0.00,,,-99.99,,2013-01-03 03:02:00,
2013-01-02 20:12:00,11.0,6.0,-100.00,West,270,4.0,6.0,77,0.00,,,-99.99,,2013-01-03 03:12:00,
2013-01-02 20:22:00,11.0,5.0,-100.00,North,355,1.0,2.0,77,0.00,,,-99.99,,2013-01-03 03:22:00,
2013-01-02 20:46:00,10.0,4.0,-100.00,NE,35,1.0,3.0,78,0.00,,,-99.99,,2013-01-03 03:46:00,
2013-01-02 20:52:00,7.0,2.0,-100.00,NW,320,2.0,3.0,78,0.00,,,-99.99,,2013-01-03 03:52:00,
2013-01-02 21:02:00,7.0,2.0,-100.00,NW,305,2.0,3.0,78,0.00,,,-99.99,,2013-01-03 04:02:00,
2013-01-02 21:12:00,5.0,0.0,-100.00,NW,305,2.0,2.0,79,0.00,,,-99.99,,2013-01-03 04:12:00,
2013-01-02 21:22:00,6.0,1.0,-100.00,NNE,15,3.0,6.0,80,0.00,,,-99.99,,2013-01-03 04:22:00,
2013-01-02 21:32:00,5.0,0.0,-100.00,SW,225,1.0,5.0,80,0.00,,,-99.99,,2013-01-03 04:32:00,
2013-01-02 21:42:00,4.0,-1.0,-100.00,West,260,0.0,3.0,81,0.00,,,-99.99,,2013-01-03 04:42:00,
2013-01-02 21:52:00,4.0,-1.0,-100.00,NNE,30,4.0,6.0,82,0.00,,,-99.99,,2013-01-03 04:52:00,
2013-01-02 22:03:00,3.0,-1.0,-100.00,ESE,120,3.0,4.0,82,0.00,,,-99.99,,2013-01-03 05:03:00,
2013-01-02 22:12:00,2.0,-2.0,-100.00,SE,130,3.0,4.0,82,0.00,,,-99.99,,2013-01-03 05:12:00,
2013-01-02 22:22:00,1.0,-3.0,-100.00,East,100,4.0,5.0,83,0.00,,,-99.99,,2013-01-03 05:22:00,
2013-01-02 22:33:00,0.0,-4.0,-100.00,East,95,3.0,4.0,83,0.00,,,-99.99,,2013-01-03 05:33:00,
2013-01-02 22:42:00,-1.0,-4.0,-100.00,East,100,3.0,4.0,84,0.00,,,-99.99,,2013-01-03 05:42:00,
2013-01-02 22:52:00,-1.0,-5.0,-100.00,SE,130,3.0,4.0,84,0.00,,,-99.99,,2013-01-03 05:52:00,
2013-01-02 23:02:00,-2.0,-6.0,-100.00,SE,125,3.0,5.0,84,0.00,,,-99.99,,2013-01-03 06:02:00,
2013-01-02 23:12:00,-3.0,-6.0,-100.00,ESE,120,4.0,5.0,85,0.00,,,-99.99,,2013-01-03 06:12:00,
2013-01-02 23:22:00,-3.0,-6.0,-100.00,ESE,120,4.0,6.0,86,0.00,,,-99.99,,2013-01-03 06:22:00,
2013-01-02 23:32:00,-3.0,-7.0,-100.00,East,100,4.0,7.0,86,0.00,,,-99.99,,2013-01-03 06:32:00,
2013-01-02 23:42:00,-4.0,-7.0,-100.00,SE,125,2.0,5.0,86,0.00,,,-99.99,,2013-01-03 06:42:00,
2013-01-02 23:52:00,-5.0,-7.0,-100.00,ESE,105,4.0,5.0,86,0.00,,,-99.99,,2013-01-03 06:52:00,